GW4812 Weather Reports


time (UTC)temp
C
wind
direction
speed
KPH
gust
KPH
rain 1hr
cm
rain 24hr
cm
rain mn
cm
humidity
%
barometer
mb
20260504004553 10 244 1.6 1.6 0.00 0.00 0.00 55 1012.0
20260504004052 10 269 0.0 1.6 0.00 0.00 0.00 55 1012.0
20260504003553 10 257 1.6 3.2 0.00 0.00 0.00 54 1012.0
20260504003053 11 261 1.6 3.2 0.00 0.00 0.00 52 1012.0
20260504002552 11 255 1.6 3.2 0.00 0.00 0.00 48 1012.0
20260504002053 11 242 0.0 0.0 0.00 0.00 0.00 45 1012.0
20260504001552 12 183 0.0 1.6 0.00 0.00 0.00 44 1012.0
20260504001053 12 282 0.0 1.6 0.00 0.00 0.00 43 1011.0
20260504000552 12 0 0.0 0.0 0.00 0.00 0.00 40 1011.0
20260504000053 13 266 0.0 1.6 0.00 0.00 0.00 39 1011.0
20260503235552 13 0 0.0 0.0 0.00 0.00 0.00 37 1011.0
20260503235052 13 0 0.0 0.0 0.00 0.00 0.00 37 1011.0
20260503234553 13 242 3.2 6.4 0.00 0.00 0.00 35 1011.0
20260503234052 13 196 1.6 4.8 0.00 0.00 0.00 36 1011.0
20260503233553 14 263 0.0 3.2 0.00 0.00 0.00 37 1011.0
20260503233053 14 220 0.0 3.2 0.00 0.00 0.00 35 1011.0
20260503232553 14 103 0.0 1.6 0.00 0.00 0.00 34 1011.0
20260503232052 14 200 1.6 3.2 0.00 0.00 0.00 35 1011.0
20260503231552 14 0 0.0 0.0 0.00 0.00 0.00 33 1011.0
20260503231052 14 85 0.0 1.6 0.00 0.00 0.00 34 1011.0
20260503230553 14 224 0.0 1.6 0.00 0.00 0.00 35 1011.0
20260503230053 14 187 0.0 1.6 0.00 0.00 0.00 35 1011.0
20260503225552 15 258 0.0 1.6 0.00 0.00 0.00 35 1011.0
20260503225052 15 203 1.6 3.2 0.00 0.00 0.00 32 1010.0
20260503224553 15 28 3.2 6.4 0.00 0.00 0.00 32 1011.0
20260503224052 15 206 3.2 6.4 0.00 0.00 0.00 31 1011.0
20260503223552 15 184 1.6 3.2 0.00 0.00 0.00 32 1011.0
20260503223052 15 170 0.0 3.2 0.00 0.00 0.00 32 1010.0
20260503222553 15 202 4.8 9.7 0.00 0.00 0.00 31 1010.0
20260503222053 15 200 1.6 3.2 0.00 0.00 0.00 32 1010.0
20260503221552 15 125 1.6 4.8 0.00 0.00 0.00 30 1010.0
20260503221052 15 69 3.2 6.4 0.00 0.00 0.00 30 1010.0
20260503220553 16 42 4.8 12.9 0.00 0.00 0.00 30 1010.0
20260503220052 16 161 1.6 3.2 0.00 0.00 0.00 30 1010.0
20260503215552 16 216 3.2 4.8 0.00 0.00 0.00 30 1010.0
20260503215052 16 228 3.2 9.7 0.00 0.00 0.00 31 1010.0
20260503214552 16 198 4.8 9.7 0.00 0.00 0.00 30 1010.0
20260503214052 16 267 0.0 1.6 0.00 0.00 0.00 30 1010.0
20260503213553 16 20 1.6 4.8 0.00 0.00 0.00 30 1010.0
20260503213052 16 276 1.6 3.2 0.00 0.00 0.00 30 1010.0
20260503212552 16 311 1.6 6.4 0.00 0.00 0.00 30 1010.0
20260503212052 16 255 3.2 4.8 0.00 0.00 0.00 32 1010.0
20260503211553 15 83 3.2 6.4 0.00 0.00 0.00 31 1010.0
20260503211052 16 136 3.2 6.4 0.00 0.00 0.00 31 1010.0
20260503210552 16 197 3.2 8.0 0.00 0.00 0.00 31 1010.0
20260503210053 16 249 4.8 6.4 0.00 0.00 0.00 30 1010.0
20260503205552 16 207 3.2 6.4 0.00 0.00 0.00 32 1010.0
20260503205052 15 223 3.2 6.4 0.00 0.00 0.00 33 1010.0
20260503204552 15 213 4.8 12.9 0.00 0.00 0.00 30 1010.0
20260503204052 15 193 6.4 14.5 0.00 0.00 0.00 31 1010.0
20260503203553 15 14 3.2 8.0 0.00 0.00 0.00 32 1010.0
20260503203053 15 340 3.2 6.4 0.00 0.00 0.00 31 1011.0
20260503202552 15 296 4.8 9.7 0.00 0.00 0.00 32 1010.0
20260503202052 15 207 3.2 9.7 0.00 0.00 0.00 31 1010.0
20260503201552 15 8 6.4 9.7 0.00 0.00 0.00 31 1011.0
20260503201054 15 239 3.2 6.4 0.00 0.00 0.00 31 1010.0
20260503200552 15 220 4.8 9.7 0.00 0.00 0.00 30 1011.0
20260503200052 15 126 0.0 3.2 0.00 0.00 0.00 33 1011.0
20260503195552 15 237 3.2 4.8 0.00 0.00 0.00 32 1011.0
20260503195053 15 80 3.2 8.0 0.00 0.00 0.00 32 1011.0
20260503194552 15 87 1.6 3.2 0.00 0.00 0.00 33 1011.0
20260503194054 15 262 4.8 9.7 0.00 0.00 0.00 32 1011.0
20260503193552 14 6 1.6 3.2 0.00 0.00 0.00 36 1011.0
20260503193052 14 229 8.0 17.7 0.00 0.00 0.00 33 1011.0
20260503192552 14 190 6.4 11.3 0.00 0.00 0.00 33 1011.0
20260503192052 14 87 3.2 8.0 0.00 0.00 0.00 34 1011.0
20260503191555 15 0 1.6 4.8 0.00 0.00 0.00 34 1011.0
20260503191052 14 190 3.2 8.0 0.00 0.00 0.00 34 1011.0
20260503190552 14 307 1.6 3.2 0.00 0.00 0.00 35 1011.0
20260503190052 13 203 3.2 6.4 0.00 0.00 0.00 34 1011.0
20260503185553 13 59 1.6 4.8 0.00 0.00 0.00 39 1011.0
20260503185052 13 257 3.2 9.7 0.00 0.00 0.00 37 1011.0
20260503184553 13 41 4.8 9.7 0.00 0.00 0.00 36 1011.0
20260503184052 13 0 3.2 4.8 0.00 0.00 0.00 38 1011.0
20260503183553 13 119 3.2 6.4 0.00 0.00 0.00 35 1011.0
20260503183052 13 66 6.4 11.3 0.00 0.00 0.00 35 1011.0
20260503182552 12 219 6.4 14.5 0.00 0.00 0.00 36 1011.0
20260503182052 12 285 4.8 8.0 0.00 0.00 0.00 37 1011.0
20260503181553 12 269 3.2 6.4 0.00 0.00 0.00 36 1011.0
20260503181052 12 353 3.2 8.0 0.00 0.00 0.00 37 1011.0
20260503180552 12 238 4.8 11.3 0.00 0.00 0.00 38 1011.0
20260503180052 12 354 6.4 12.9 0.00 0.00 0.00 39 1012.0
20260503175552 12 163 3.2 8.0 0.00 0.00 0.00 38 1011.0
20260503175052 12 233 6.4 9.7 0.00 0.00 0.00 38 1012.0
20260503174552 12 216 6.4 11.3 0.00 0.00 0.00 37 1011.0
20260503174052 12 41 4.8 8.0 0.00 0.00 0.00 37 1011.0
20260503173552 12 33 3.2 3.2 0.00 0.00 0.00 39 1012.0
20260503173053 12 323 4.8 9.7 0.00 0.00 0.00 41 1012.0
20260503172553 12 302 3.2 8.0 0.00 0.00 0.00 39 1012.0
20260503172052 11 236 3.2 3.2 0.00 0.00 0.00 41 1012.0
20260503171553 11 29 1.6 3.2 0.00 0.00 0.00 40 1012.0
20260503171052 11 60 1.6 3.2 0.00 0.00 0.00 41 1012.0
20260503170555 11 51 3.2 9.7 0.00 0.00 0.00 43 1012.0
20260503150552 9 212 1.6 4.8 0.00 0.00 0.00 46 1013.0
20260503130612 8 159 4.8 8.0 0.00 0.00 0.00 53 1012.0
20260503110553 6 322 0.0 1.6 0.00 0.00 0.00 63 1012.0
20260503081552 7 260 3.2 3.2 0.00 0.00 0.00 55 1011.0
20260503081053 7 306 1.6 3.2 0.00 0.00 0.00 55 1011.0
20260503080553 7 300 3.2 3.2 0.00 0.00 0.00 56 1011.0
20260503072552 7 138 0.0 0.0 0.00 0.00 0.00 56 1011.0
20260503072052 7 291 1.6 3.2 0.00 0.00 0.00 55 1010.0
20260503071552 7 269 0.0 1.6 0.00 0.00 0.00 56 1010.0
20260503071052 7 359 1.6 3.2 0.00 0.00 0.00 56 1010.0
20260503070552 7 238 1.6 1.6 0.00 0.00 0.00 55 1011.0
20260503055053 8 219 0.0 1.6 0.00 0.00 0.00 53 1011.0
20260503054554 8 210 1.6 1.6 0.00 0.00 0.00 53 1011.0
20260503054053 8 260 1.6 3.2 0.00 0.00 0.00 50 1011.0
20260503053553 8 0 0.0 0.0 0.00 0.00 0.00 51 1011.0
20260503053052 8 178 0.0 1.6 0.00 0.00 0.00 50 1011.0
20260503052552 8 354 1.6 3.2 0.00 0.00 0.00 50 1011.0
20260503052052 8 187 1.6 3.2 0.00 0.00 0.00 50 1011.0
20260503051552 8 47 0.0 0.0 0.00 0.00 0.00 50 1011.0
20260503051053 8 171 0.0 1.6 0.00 0.00 0.00 50 1011.0
20260503050552 8 323 0.0 1.6 0.00 0.00 0.00 50 1011.0
20260503050053 8 240 0.0 1.6 0.00 0.00 0.00 50 1011.0
20260503045552 8 282 3.2 3.2 0.00 0.00 0.00 49 1011.0
20260503045052 9 0 0.0 0.0 0.00 0.00 0.00 50 1011.0
20260503044552 9 61 1.6 1.6 0.00 0.00 0.00 48 1011.0
20260503044052 9 311 1.6 3.2 0.00 0.00 0.00 49 1011.0
20260503043552 9 77 1.6 1.6 0.00 0.00 0.00 48 1011.0
20260503043053 9 355 0.0 0.0 0.00 0.00 0.00 48 1011.0
20260503042552 9 238 1.6 4.8 0.00 0.00 0.00 49 1011.0
20260503042052 9 0 0.0 0.0 0.00 0.00 0.00 48 1011.0
20260503041552 9 321 3.2 3.2 0.00 0.00 0.00 48 1011.0
20260503041052 9 322 1.6 3.2 0.00 0.00 0.00 48 1011.0
20260503040553 9 300 1.6 1.6 0.00 0.00 0.00 48 1011.0
20260503040053 9 279 3.2 4.8 0.00 0.00 0.00 47 1011.0
20260503035553 9 281 0.0 1.6 0.00 0.00 0.00 48 1011.0
20260503035054 9 336 0.0 1.6 0.00 0.00 0.00 48 1011.0
20260503034552 9 90 0.0 0.0 0.00 0.00 0.00 48 1011.0
20260503034053 9 332 0.0 0.0 0.00 0.00 0.00 48 1011.0
20260503033552 9 229 1.6 3.2 0.00 0.00 0.00 48 1011.0
20260503033052 9 0 0.0 0.0 0.00 0.00 0.00 49 1011.0
20260503032553 9 68 0.0 1.6 0.00 0.00 0.00 50 1011.0
20260503032053 9 275 0.0 0.0 0.00 0.00 0.00 49 1011.0
20260503031552 9 296 0.0 0.0 0.00 0.00 0.00 49 1011.0
20260503031052 9 313 0.0 0.0 0.00 0.00 0.00 49 1011.0
20260503030553 10 270 0.0 1.6 0.00 0.00 0.00 48 1011.0
20260503030053 10 340 0.0 1.6 0.00 0.00 0.00 46 1011.0
20260503025552 10 334 0.0 1.6 0.00 0.00 0.00 48 1011.0
20260503025052 10 220 0.0 0.0 0.00 0.00 0.00 47 1011.0
20260503024552 10 14 0.0 1.6 0.00 0.00 0.00 47 1011.0
20260503024052 10 90 0.0 1.6 0.00 0.00 0.00 47 1011.0
20260503023553 10 286 1.6 3.2 0.00 0.00 0.00 46 1011.0
20260503023053 10 245 1.6 3.2 0.00 0.00 0.00 46 1011.0
20260503022552 10 161 0.0 1.6 0.00 0.00 0.00 47 1011.0
20260503022053 10 0 0.0 0.0 0.00 0.00 0.00 47 1011.0
20260503021552 10 203 1.6 1.6 0.00 0.00 0.00 47 1011.0
20260503021053 10 0 0.0 0.0 0.00 0.00 0.00 45 1011.0
20260503020552 10 0 0.0 0.0 0.00 0.00 0.00 47 1011.0
20260503020053 10 230 1.6 1.6 0.00 0.00 0.00 46 1011.0
20260503015552 10 303 1.6 1.6 0.00 0.00 0.00 46 1011.0
20260503015053 10 239 0.0 1.6 0.00 0.00 0.00 45 1011.0
20260503014552 10 0 0.0 0.0 0.00 0.00 0.00 44 1011.0
20260503014054 10 271 0.0 3.2 0.00 0.00 0.00 46 1012.0
20260503013552 10 256 1.6 3.2 0.00 0.00 0.00 46 1011.0
20260503013053 10 259 0.0 1.6 0.00 0.00 0.00 47 1011.0
20260503012553 10 292 0.0 1.6 0.00 0.00 0.00 49 1011.0
20260503012052 10 282 0.0 1.6 0.00 0.00 0.00 49 1011.0
20260503011552 10 260 1.6 3.2 0.00 0.00 0.00 50 1011.0
20260503011052 10 272 1.6 1.6 0.00 0.00 0.00 50 1011.0
20260503010553 10 257 0.0 1.6 0.00 0.00 0.00 50 1011.0
20260503010053 10 274 0.0 1.6 0.00 0.00 0.00 50 1011.0
20260503005553 10 272 1.6 3.2 0.00 0.00 0.00 49 1011.0
20260503005053 11 0 0.0 0.0 0.00 0.00 0.00 51 1011.0